עמוד ראשי
METAR-TAF:

METAR-TAF

שדות תעופה :

Tela, הונדורס

קו רוחב: 15-43N, קו אורך: 087-29W, גובה: 3מטר

תצפית מזג אוויר נוכחית

הדו"ח נערך לפני 24דקות, בשעה 21:00 UTC
רוח 8קשר מכיוון צפון
טמפרטורת 33 צלסיוס
לחות 71%
לחץ 1004 hPa
ראות 10 קילומטר או יותר
עננים פזורים בגובה 2600רגל

METAR: MHTE 142100Z 36008KT 9999 SCT026 33/27 Q1004 A2965

זמן: 15:24 (21:24 UTC)


TAF: חסר

תצפיות ותחזיות מזג אוויר לגבי יותר מ- 4,000 שדות תעופה ברחבי העולם. דוחות METAR ו- TAF.

התחנות הזמינות מסומנות בנקודות צהובות ואדומות על גבי המפה.

העבר את העכבר לנקודה הצבעונית על מנת לראות את שם התחנה.

לאחר מכן, לחץ כדי לראות את תוכן ואת תחזיות מזג האוויר.

כדי לשנות את המפה: לחץ על הכפתורים הירוקים עם הפלוס השחור כדי להתקרב; על הכפתור הירוק עם המקף כדי להתרחק; או בחיצים הירוקים למפות סמוכות.


METAR-TAF: